Regional Weather Roundup
Issued by NWS Newport/Morehead, NC

Current Version | Previous Version | Text Only | Print | Product List | Glossary Off
Versions: 1 2 3 4 5 6 7 8 9 10 11 12 13 14 15 16 17 18 19 20 21 22 23 24 25 26 27 28 29 30 31 32 33 34 35 36 37 38 39 40 41 42 43 44 45 46 47 48 49 50
000 ASUS42 KMHX 182010 RWRMHX WEATHER ROUNDUP FOR EASTERN NORTH CAROLINA NATIONAL WEATHER SERVICE NEWPORT/MOREHEAD CITY NC 400 PM EDT THU SEP 18 2014 NOTE: "FAIR" INDICATES FEW OR NO CLOUDS BELOW 12,000 FEET WITH NO SIGNIFICANT WEATHER AND/OR OBSTRUCTIONS TO VISIBILITY NCZ015>017-031-032-045>047-102-103-182100- NORTH COAST CITY SKY/WX TMP DP RH WIND PRES REMARKS EDENTON MOSUNNY 76 59 54 E14 30.00S ELIZABETH CITY SUNNY 75 55 49 NE12 30.01S KITTY HAWK CLEAR 74 55 50 NE8 30.00R MANTEO SUNNY 74 56 53 NE12 30.01R $$ NCZ045>047-081-094-103-104-182100- CENTRAL COAST CITY SKY/WX TMP DP RH WIND PRES REMARKS FRISCO SUNNY 74 57 55 NE10G17 29.99R SWANQUARTER N/A 79 N/A N/A VRB6G14 29.94S $$ NCZ095-097-098-100-101-182100- SOUTHERN COAST CITY SKY/WX TMP DP RH WIND PRES REMARKS BEAUFORT SUNNY 78 60 53 NE13 29.98S CEDAR ISLAND N/A 75 N/A N/A NE14 30.03S JACKSONVILLE MOSUNNY 81 62 52 E9 29.96F NEWPORT NOT AVBL PINEY ISLAND CLEAR 78 59 51 NE13 29.98F WILMINGTON MOSUNNY 80 64 58 E12 29.96F $$ NCZ011>013-027>030-043-044-078>080-089-090>093-098-182100- COASTAL PLAIN CITY SKY/WX TMP DP RH WIND PRES REMARKS AHOSKIE SUNNY 77 57 50 CALM 29.99F CLINTON MOSUNNY 81 64 57 NE3 29.97S ELIZABETHTOWN SUNNY 82 63 53 CALM 29.96S GOLDSBORO SUNNY 81 62 53 N5 29.95F GREENVILLE MOSUNNY 79 59 50 CALM 30.00S HAVELOCK MOSUNNY 79 59 50 NE12 29.99F KENANSVILLE MOSUNNY 79 59 49 CALM 29.97F KINSTON SUNNY 79 59 50 NE6 29.98F NEW BERN PTSUNNY 78 62 57 E7 29.99S RICHLANDS PTSUNNY 81 61 50 NE8 29.96F ROANOKE RAPIDS NOT AVBL ROCKY MOUNT PTSUNNY 78 59 51 NE6 29.98F WASHINGTON SUNNY 78 58 49 N5 29.99S WHITEVILLE MOSUNNY 81 65 57 NE5 29.94S $$ AMZ130-135-150-152-154-156-158-170-250-252-270-ANZ085-086-088-633-658-670-182100- MARINE OBSERVATIONS STATION/POSITION TIME TEMP WIND PRES WAVE SWELL AIR SEA DIR/SP/G HT/PER HT/PER (UTC) (F) (DEG/KT/KT) (MB) (FT/S) (FT/S) CHESAPEAKE LIGHT 1900 70 60/ 9/ 10 1017.2 BUOY 44014 2000 72 77 30/ 14/ 17 1015.4 4/11 3/11 DUCK 2000 71 75 50/ 13/ 15 1015.4 2E DUCK 2000 N/A 4/12 2/12 OREGON INLET 2000 73 74 30/ 13/ 17 1015.7 BUOY 44095 2000 76 N/A 4/13 2/13 20E OREGON INLET NOT AVBL HATTERAS CG 2000 74 76 40/ 8/ 13 1016.1 DIAMOND BUOY 2000 74 360/ 16/ 19 1014.9 5/11 3/11 CAPE LOOKOUT 1900 74 50/ 16/ 18 1015.4 BEAUFORT LAB 2000 78 79 30/ 8/ 10 1014.7 30 SE NEW RIVER 2000 77 83 50/ 17/ 21 1014.8 5/12 3/12 5 SE WRIGHTSVILL 1900 75 81 80/ 16/ 17 N/A BUOY 41002 1901 79 83 30/ 6/ 8 1013.4 3/12 3/12 BUOY 41004 2000 80 84 20/ 6/ 8 1012.8 3/10 3/10 $$

USA.gov is the U.S. government's official web portal to all federal, state and local government web resources and services.